[ hide orbit diagram ]
For accurate long-term ephemerides, please instead use our Horizons system.This orbit viewer was implemented using two-body methods, and hence should not be used for determining accurate long-term trajectories (over several years or decades) or planetary encounter circumstances.
Orbital Elements at Epoch 2459000.5 (2020-May-31.0) TDB
Reference: JPL 10 (heliocentric ecliptic J2000)
Element | Value | Uncertainty (1-sigma) | Units |
e | .8221840203676828 | 8.0754e-06 | |
a | 100.6807258836979 | 0.0050594 | au |
q | 17.90264190310254 | 9.5307e-05 | au |
i | 22.31053214294135 | 2.5266e-05 | deg |
node | 172.07362998175 | 9.6119e-05 | deg |
peri | 319.8728606879533 | 0.0005187 | deg |
M | 11.00551272261827 | 0.00085298 | deg |
tp | 2447720.068481228644 (1989-Jul-12.56848123) | 0.024806 | TDB |
period | 368992.8356006267 1010.25 | 27.814 0.07615 | d yr |
n | .0009756286986277428 | 7.3541e-08 | deg/d |
Q | 183.4588098642933 | 0.0092192 | au |
|
| | Orbit Determination Parameters
Additional Information
|
[ hide covariance matrix ]
Orbital Elements at Epoch 2457039.5 (2015-Jan-17.0) TDB
Reference: JPL 10 (heliocentric ecliptic J2000)
Element | Value | Uncertainty (1-sigma) | Units |
e | .8259925917705494 | 8.0691e-06 | |
q | 17.8096683899855 | 9.5144e-05 | au |
tp | 2447751.205525711834 (1989-Aug-12.70552571) | 0.024376 | TDB |
node | 171.8775051477283 | 9.6579e-05 | deg |
peri | 319.906763543789 | 0.00051683 | deg |
i | 22.27131075277478 | 2.5183e-05 | deg |
|
| | Orbit Determination Parameters
Additional Information
|
Orbit Covariance (6×6)
|
|
e |
q |
tp |
node |
peri |
i |
e |
6.511057619786595E-11 |
6.903642193663399E-10 |
1.911365169799643E-7 |
-1.285089558992478E-11 |
3.965762609755625E-9 |
6.266932214572483E-12 |
q |
6.903642193663399E-10 |
9.052410893606643E-9 |
1.894072588216988E-6 |
-2.102658035275268E-10 |
4.749642437096548E-8 |
5.383212398944135E-11 |
tp |
1.911365169799643E-7 |
1.894072588216988E-6 |
.000594205348545915 |
-2.81912633072346E-8 |
1.132495076996963E-5 |
1.959046649491976E-8 |
node |
-1.285089558992478E-11 |
-2.102658035275268E-10 |
-2.81912633072346E-8 |
9.327575473751502E-9 |
-9.624445669163035E-9 |
2.372402333719776E-9 |
peri |
3.965762609755625E-9 |
4.749642437096548E-8 |
1.132495076996963E-5 |
-9.624445669163035E-9 |
2.671134579441593E-7 |
-1.852999084424706E-9 |
i |
6.266932214572483E-12 |
5.383212398944135E-11 |
1.959046649491976E-8 |
2.372402333719776E-9 |
-1.852999084424706E-9 |
6.341629695970706E-10 |
|
Physical Parameter Table
Parameter |
Symbol |
Value |
Units |
Sigma |
Reference |
Notes |
absolute magnitude |
H |
6.4 |
|
n/a |
MPO231800 |
|
rotation period |
rot_per |
4.43 |
h |
n/a |
LCDB (Rev. 2020-October); Warner et al., 2009 |
Result based on less than full coverage, so that the period may be wrong by 30 percent or so. Published Reference List: [Dotto, E.; Pema, D.; Barucci, M.A.; Rossi, A. et al. (2008) Astron. Astrophys. 490, 829-833.] [Perna, D.; Dotto, E.; Barucci, M.A.; Rossi, A.; et al. (2008) Bull. Amer. Astron. Soc. 40, #47.08.] |
|
65489 Ceto | Discovered 2003 Mar. 22 by C. A. Trujillo and M. Brown at Palomar. |
The satellite (65489) Ceto I, discovered 2006 Apr. 11 by K. Noll, H. Levison, W. Grundy and D. Stephens using the Hubble Space Telescope, is named Phorcys, for another child of Gaia and Pontus. Phorcys is represented with a man's head, crab's claws and a fish tail. Together the monstrous sea creatures Ceto and Phorcys produced numerous offspring, including many monstrous creatures known collectively as the Phorcydides. |
NOTE: some special characters may not display properly (any characters within {} are an attempt to place the proper accent above a character) |
Reference: 20061109/MPCPages.arc | Last Updated: 2006-11-13 |
|
|